Ionia, MI

7:31 AM EDT on June 26, 2017 (GMT -0400)
Ionia

Weather History for KY70 - January, 2013

Change the Weather History Date:

Wednesday, January 16, 2013

  Actual Average (KGRR) Record (KGRR)
Temperature  
Mean Temperature 28 °F -  
Max Temperature 37 °F 29 °F 58 °F (1949)
Min Temperature 18 °F 12 °F -16 °F (1972)
Degree Days  
Heating Degree Days 38    
Moisture  
Dew Point 21 °F    
Average Humidity 69    
Maximum Humidity 85    
Minimum Humidity 48    
Precipitation  
Precipitation 0.00 in - - ()
Sea Level Pressure  
Sea Level Pressure 29.89 in    
Wind  
Wind Speed 11 mph (SW)    
Max Wind Speed 29 mph    
Max Gust Speed 36 mph    
Visibility 10 miles    
Events      
Averages and records for this station are not official NWS values.
T = Trace of Precipitation, MM = Missing Value Source: NWS Daily Summary

Daily Weather History Graph

Daily Weather History Graph

Search for Another Location

Airport or City:

Trip Planner

Search our weather history database for the weather conditions in past years. The results will help you decide how hot, cold, wet, or windy it might be!

Date:

Astronomy

Jan. 16, 2013 Rise Set
Actual Time 8:07 AM EST 5:32 PM EST
Civil Twilight 7:36 AM EST 6:04 PM EST
Nautical Twilight 7:01 AM EST 6:39 PM EST
Astronomical Twilight 6:27 AM EST 7:12 PM EST
Moon 10:34 AM EST (1/16) 11:33 PM EST (1/16)
Length of Visible Light 10h 27m
Length of Day
9h 24m
Waxing Crescent, 28% of the Moon is Illuminated
Jan 16
Waxing Crescent
Jan 18
First Quarter
Jan 26
Full
Feb 3
Last Quarter
Feb 10
New

Hourly Weather History & Observations

Time (EST) Temp. Windchill Dew Point Humidity Pressure Visibility Wind Dir Wind Speed Gust Speed Precip Events Conditions
12:14 AM 21.9 °F 12.5 °F 15.4 °F 76% 30.10 in 10.0 mi South 8.1 mph - N/A   Clear
12:34 AM 22.5 °F 14.1 °F 15.1 °F 73% 30.09 in 10.0 mi SSW 6.9 mph - N/A   Scattered Clouds
1:14 AM 20.3 °F 15.4 °F 14.5 °F 78% 30.07 in 10.0 mi South 3.5 mph - N/A   Clear
1:34 AM 21.7 °F 17.0 °F 15.6 °F 77% 30.07 in 10.0 mi SSW 3.5 mph - N/A   Clear
1:54 AM 20.3 °F 15.4 °F 14.7 °F 79% 30.06 in 10.0 mi SW 3.5 mph - N/A   Scattered Clouds
2:14 AM 20.5 °F 15.6 °F 14.5 °F 78% 30.07 in 7.0 mi SW 3.5 mph - N/A   Scattered Clouds
2:34 AM 20.3 °F 13.8 °F 14.7 °F 79% 30.06 in 10.0 mi SW 4.6 mph - N/A   Clear
2:54 AM 18.5 °F 9.3 °F 13.3 °F 80% 30.05 in 10.0 mi SSW 6.9 mph - N/A   Clear
3:14 AM 20.5 °F 12.8 °F 14.4 °F 77% 30.04 in 10.0 mi SSW 5.8 mph - N/A   Clear
3:34 AM 21.0 °F 12.4 °F 14.5 °F 76% 30.04 in 10.0 mi SSW 6.9 mph - N/A   Clear
4:14 AM 20.3 °F 12.5 °F 14.4 °F 78% 30.02 in 10.0 mi SW 5.8 mph - N/A   Clear
4:34 AM 21.6 °F 13.0 °F 15.3 °F 77% 30.00 in 10.0 mi SSW 6.9 mph - N/A   Clear
4:54 AM 22.1 °F 14.7 °F 15.6 °F 76% 30.00 in 10.0 mi SSW 5.8 mph - N/A   Clear
5:14 AM 22.6 °F 13.4 °F 15.8 °F 75% 29.98 in 10.0 mi SSW 8.1 mph - N/A   Clear
5:34 AM 23.0 °F 13.1 °F 16.2 °F 75% 29.97 in 10.0 mi SSW 9.2 mph - N/A   Clear
5:54 AM 23.4 °F 13.5 °F 16.3 °F 75% 29.97 in 10.0 mi SSW 9.2 mph - N/A   Clear
6:14 AM 23.7 °F 13.3 °F 16.5 °F 74% 29.95 in 10.0 mi SSW 10.4 mph - N/A   Clear
6:34 AM 23.7 °F 15.6 °F 16.5 °F 74% 29.95 in 10.0 mi SW 6.9 mph - N/A   Clear
6:54 AM 23.4 °F 12.8 °F 16.5 °F 75% 29.94 in 10.0 mi SSW 10.4 mph - N/A   Clear
7:34 AM 23.9 °F 13.5 °F 16.7 °F 74% 29.92 in 10.0 mi SSW 10.4 mph - N/A   Clear
7:54 AM 23.4 °F 13.5 °F 16.7 °F 76% 29.91 in 10.0 mi SSW 9.2 mph - N/A   Clear
8:14 AM 23.9 °F 13.5 °F 16.9 °F 75% 29.91 in 10.0 mi SSW 10.4 mph - N/A   Clear
8:34 AM 24.3 °F 13.9 °F 17.4 °F 75% 29.91 in 10.0 mi SW 10.4 mph - N/A   Clear
8:54 AM 24.8 °F 14.6 °F 17.6 °F 74% 29.91 in 10.0 mi SW 10.4 mph - N/A   Clear
9:13 AM 26.2 °F 15.8 °F 18.0 °F 71% 29.91 in 10.0 mi SW 11.5 mph - N/A   Clear
9:34 AM 27.1 °F 17.5 °F 18.7 °F 70% 29.90 in 10.0 mi SW 10.4 mph 18.4 mph N/A   Clear
9:54 AM 28.0 °F 17.0 °F 19.4 °F 70% 29.90 in 10.0 mi SW 13.8 mph - N/A   Clear
10:14 AM 29.3 °F 18.6 °F 20.3 °F 69% 29.89 in 10.0 mi SW 13.8 mph - N/A   Clear
10:33 AM 30.2 °F 18.9 °F 20.5 °F 67% 29.87 in 10.0 mi SSW 16.1 mph 20.7 mph N/A   Clear
10:54 AM 31.6 °F 20.4 °F 21.4 °F 66% 29.86 in 10.0 mi SW 17.3 mph - N/A   Clear
11:14 AM 32.5 °F 21.2 °F 21.7 °F 64% 29.84 in 10.0 mi SW 18.4 mph 21.9 mph N/A   Clear
11:34 AM 33.3 °F 21.8 °F 21.4 °F 62% 29.84 in 10.0 mi SW 19.6 mph 25.3 mph N/A   Clear
11:54 AM 33.8 °F 22.8 °F 20.7 °F 59% 29.83 in 10.0 mi SW 18.4 mph 29.9 mph N/A   Clear
12:14 PM 34.0 °F 22.7 °F 20.3 °F 57% 29.82 in 10.0 mi SW 19.6 mph 28.8 mph N/A   Clear
12:34 PM 34.7 °F 23.7 °F 21.2 °F 58% 29.81 in 10.0 mi WSW 19.6 mph 25.3 mph N/A   Clear
12:54 PM 35.4 °F 23.7 °F 20.7 °F 55% 29.80 in 10.0 mi WSW 23.0 mph 28.8 mph N/A   Clear
1:14 PM 35.6 °F 24.5 °F 20.7 °F 55% 29.78 in 10.0 mi WSW 20.7 mph 27.6 mph N/A   Clear
1:34 PM 36.0 °F 24.2 °F 19.8 °F 52% 29.77 in 10.0 mi WSW 24.2 mph 27.6 mph N/A   Clear
1:54 PM 36.9 °F 25.9 °F 19.8 °F 50% 29.77 in 10.0 mi WSW 21.9 mph 28.8 mph N/A   Clear
2:14 PM 37.2 °F 26.7 °F 20.3 °F 50% 29.76 in 10.0 mi WSW 20.7 mph 28.8 mph N/A   Scattered Clouds
2:34 PM 36.7 °F 26.9 °F 20.7 °F 52% 29.75 in 10.0 mi SW 17.3 mph - N/A   Mostly Cloudy
3:14 PM 36.5 °F 25.2 °F 19.2 °F 50% 29.75 in 10.0 mi WSW 23.0 mph 32.2 mph N/A   Overcast
3:34 PM 36.5 °F 26.0 °F 19.2 °F 50% 29.75 in 10.0 mi WSW 19.6 mph 25.3 mph N/A   Overcast
3:54 PM 36.1 °F 25.0 °F 18.3 °F 48% 29.76 in 10.0 mi WSW 21.9 mph 26.5 mph N/A   Overcast
4:14 PM 36.0 °F 23.2 °F 18.9 °F 50% 29.77 in 10.0 mi WSW 28.8 mph 34.5 mph N/A   Overcast
4:34 PM 35.8 °F 24.2 °F 19.4 °F 51% 29.77 in 10.0 mi WSW 23.0 mph 29.9 mph N/A   Overcast
4:54 PM 35.6 °F 24.5 °F 20.1 °F 53% 29.79 in 10.0 mi WSW 20.7 mph 32.2 mph N/A   Overcast
5:14 PM 35.6 °F 23.7 °F 21.9 °F 58% 29.79 in 10.0 mi WSW 24.2 mph 35.7 mph N/A   Overcast
5:33 PM 35.6 °F 23.7 °F 23.0 °F 60% 29.80 in 10.0 mi WSW 24.2 mph 28.8 mph N/A   Overcast
5:54 PM 35.6 °F 24.8 °F 24.4 °F 64% 29.80 in 10.0 mi WSW 19.6 mph 29.9 mph N/A   Overcast
6:14 PM 35.1 °F 24.1 °F 26.2 °F 70% 29.81 in 7.0 mi WSW 19.6 mph 25.3 mph N/A   Overcast
6:34 PM 34.7 °F 24.0 °F 28.4 °F 78% 29.82 in 5.0 mi WSW 18.4 mph 23.0 mph N/A   Haze
6:54 PM 34.7 °F 25.1 °F 30.2 °F 84% 29.83 in 4.0 mi WSW 15.0 mph 20.7 mph N/A   Overcast
7:14 PM 34.9 °F 25.3 °F 30.7 °F 85% 29.83 in 7.0 mi WSW 15.0 mph 21.9 mph N/A   Overcast
7:34 PM 35.1 °F 25.9 °F 30.7 °F 84% 29.84 in 7.0 mi WSW 13.8 mph - N/A   Overcast
7:54 PM 35.1 °F 27.4 °F 30.7 °F 84% 29.84 in 7.0 mi WSW 10.4 mph - N/A   Overcast
8:13 PM 35.1 °F 27.4 °F 30.7 °F 84% 29.85 in 7.0 mi WSW 10.4 mph - N/A   Overcast
8:34 PM 35.8 °F 28.8 °F 29.5 °F 78% 29.86 in 10.0 mi West 9.2 mph 16.1 mph N/A   Overcast
8:54 PM 36.9 °F 26.5 °F 27.5 °F 69% 29.87 in 10.0 mi West 19.6 mph 25.3 mph N/A   Overcast
9:14 PM 37.0 °F 29.3 °F 27.3 °F 68% 29.88 in 10.0 mi West 11.5 mph 17.3 mph N/A   Overcast
9:34 PM 36.7 °F 28.9 °F 27.9 °F 70% 29.88 in 10.0 mi West 11.5 mph - N/A   Overcast
9:54 PM 37.0 °F 29.3 °F 27.5 °F 68% 29.89 in 10.0 mi West 11.5 mph 17.3 mph N/A   Overcast
10:13 PM 36.9 °F 29.6 °F 28.2 °F 71% 29.90 in 10.0 mi West 10.4 mph 18.4 mph N/A   Overcast
10:34 PM 36.9 °F 29.1 °F 27.9 °F 70% 29.91 in 10.0 mi West 11.5 mph - N/A   Overcast
10:54 PM 36.7 °F 28.9 °F 27.7 °F 70% 29.91 in 10.0 mi West 11.5 mph 16.1 mph N/A   Overcast
11:14 PM 36.7 °F 28.9 °F 27.5 °F 69% 29.92 in 10.0 mi West 11.5 mph 16.1 mph N/A   Overcast
11:33 PM 36.7 °F 31.2 °F 27.7 °F 70% 29.92 in 10.0 mi West 6.9 mph - N/A   Overcast
11:54 PM 36.7 °F 29.9 °F 28.0 °F 71% 29.93 in 10.0 mi West 9.2 mph - N/A   Overcast